Rbgn^[z[y[W
メイン
   新天体発見情報
     Comet P/1998 U3 = 2013 N1 (Jager)
投稿するにはまず登録を

フラット表示 前のトピック | 次のトピック
投稿者 スレッド
佐藤裕久
投稿日時: 2013-7-16 4:36
モデレータ
登録日: 2005-6-12
居住地: 日本
投稿: 2505
オンライン
Comet P/1998 U3 = 2013 N1 (Jager)

7月12日UT、Krisztian Sarneczkyの通報によると、Konkoly天文台Piszkesteto観測所の 
0.60-m Schmidt望遠鏡を使用し17.5等のP/1998 U3を検出した。
7月8日UT、Gabor Marschalkoが同望遠鏡で得た画像にも検出前の同彗星を確認した。
7月12.04日UTの画像では、8"のコマとp.a. 270°に15"の尾が見えた。

検出位置は次のとおり、

     2013 UT             R.A. (2000) Decl.       Mag.   Observer
     July  8.03907    3 47 04.58   +35 33 00.6          Marschalko
           8.04351    3 47 05.11   +35 33 01.0            "
          12.03206    3 54 01.46   +35 56 35.8          Sarneczky
          12.03694    3 54 01.93   +35 56 37.6            "
          12.04182    3 54 02.43   +35 56 39.5   17.5     "

ICQ'の 2013 Comet Handbook の中野主一氏の予報に対し、Delta(T)は、-2.0 daysで
あった。

連結軌道要素、位置推算表は次のとおり、

Orbital elements:
    P/1998 U3 (Jager)
Epoch 1999 Mar. 3.0 TT = JDT 2451240.5
T 1999 Mar. 10.06287 TT                                 MPC
q   2.1338677            (2000.0)            P               Q
n   0.06599930     Peri.  180.89233     -0.56475077     -0.77869546
a   6.0642414      Node   303.54249     +0.75917939     -0.36036817
e   0.6481229      Incl.   19.14120     +0.32357878     -0.51358365
P  14.9
From 719 observations 1998 Oct. 24-2013 July 12, mean residual 0".8.

    P/1998 U3 (Jager)
Epoch 2014 Mar. 4.0 TT = JDT 2456720.5
T 2014 Mar. 12.47178 TT                                 MPC
q   2.1562653            (2000.0)            P               Q
n   0.06483609     Peri.  180.72405     -0.56074757     -0.78186289
a   6.1365581      Node   303.42346     +0.76129474     -0.35745625
e   0.6486198      Incl.   19.05568     +0.32556486     -0.51079884
P  15.2
From 719 observations 1998 Oct. 24-2013 July 12, mean residual 0".8.

    P/1998 U3 (Jager)
Epoch 2029 Aug. 12.0 TT = JDT 2462360.5
T 2029 July 23.60166 TT                                 MPC
q   2.3084586            (2000.0)            P               Q
n   0.06389260     Peri.  182.09445     -0.56684804     -0.77175703
a   6.1968219      Node   302.56554     +0.76072702     -0.35607105
e   0.6274770      Incl.   19.99854     +0.31619249     -0.52688186
P  15.4
From 719 observations 1998 Oct. 24-2013 July 12, mean residual 0".8.

    P/1998 U3 (Jager)
Epoch 2013 Apr. 18.0 TT = JDT 2456400.5
T 2014 Mar. 12.65653 TT                                 MPC
q   2.1555426            (2000.0)            P               Q
n   0.06498344     Peri.  180.77917     -0.56170708     -0.78120468
a   6.1272779      Node   303.43783     +0.76082094     -0.35839786
e   0.6482055      Incl.   19.05254     +0.32501793     -0.51114599
P  15.2
From 719 observations 1998 Oct. 24-2013 July 12, mean residual 0".8.

Ephemeris:
    P/1998 U3 (Jager)
Date    TT    R. A. (2000) Decl.     Delta      r     Elong.  Phase   m1
2013 06 13    03 04 40.9 +32 52 26   4.0396  3.2269    32.3     9.7  18.6
...
2013 06 28    03 29 48.6 +34 30 59   3.8480  3.1396    40.1    12.0  18.4
...
2013 07 06    03 43 32.5 +35 20 41   3.7372  3.0934    44.4    13.3  18.3
...
2013 07 12    03 53 57.9 +35 56 25   3.6507  3.0589    47.6    14.2  18.2
2013 07 13    03 55 42.7 +36 02 14   3.6360  3.0532    48.2    14.4  18.2
2013 07 14    03 57 27.6 +36 08 00   3.6212  3.0475    48.7    14.5  18.1
...
2013 07 20    04 07 59.7 +36 41 44   3.5311  3.0132    52.0    15.4  18.0
...
2013 07 28    04 22 08.5 +37 24 08   3.4075  2.9680    56.4    16.5  17.9
...
2013 08 12    04 48 47.0 +38 35 09   3.1666  2.8842    64.8    18.5  17.6

Computer: Williams

(CBET 3581、MPEC 2013-N46)
フラット表示 前のトピック | 次のトピック

題名 投稿者 日時
 » Comet P/1998 U3 = 2013 N1 (Jager) 佐藤裕久 2013-7-16 4:36

投稿するにはまず登録を
 
© 1999 Tsutomu Seki.